[ hide orbit diagram ]
For accurate long-term ephemerides, please instead use our Horizons system.This orbit viewer was implemented using two-body methods, and hence should not be used for determining accurate long-term trajectories (over several years or decades) or planetary encounter circumstances.
Orbital Elements at Epoch 2459000.5 (2020-May-31.0) TDB
Reference: JPL 19 (heliocentric ecliptic J2000)
Element | Value | Uncertainty (1-sigma) | Units |
e | .06223591498705731 | 4.7802e-08 | |
a | 2.965988583346503 | 3.1204e-08 | au |
q | 2.781397570020768 | 1.4094e-07 | au |
i | 1.736965149084035 | 4.9574e-06 | deg |
node | 62.89703858235311 | 0.00021511 | deg |
peri | 316.2104969681288 | 0.00022083 | deg |
M | 137.6559194845295 | 5.0599e-05 | deg |
tp | 2458287.080410471401 (2018-Jun-17.58041047) | 0.00026109 | TDB |
period | 1865.746516328777 5.11 | 2.9443e-05 8.061e-08 | d yr |
n | .192952256294907 | 3.0449e-09 | deg/d |
Q | 3.150579596672238 | 3.3146e-08 | au |
|
| | Orbit Determination Parameters
Additional Information
|
[ show covariance matrix ]
Physical Parameter Table
Parameter |
Symbol |
Value |
Units |
Sigma |
Reference |
Notes |
absolute magnitude |
H |
16.58 |
|
n/a |
E2021B55 |
|
|
233472 Moorcroft | Discovered 2006 May 25 by P. A. Wiegert at Mauna Kea. |
Donald Ross Moorcroft (b. 1935) is a Canadian physicist who did much to advance the field of radar backscatter from the auroral E-region ionosphere. He was the Chair of the Department of Physics of the University of Western Ontario from 1989 to 1998. |
NOTE: some special characters may not display properly (any characters within {} are an attempt to place the proper accent above a character) |
Reference: MPC batch dated 2013-04-25 | Last Updated: 2013-04-29 |
|
[ hide close-approach data ]
Close-Approach Data ...sorted by Date/Time (TDB)
|
Date/Time (TDB) |
Time Uncertainty (days_HH:MM) |
Body |
Nominal Distance (au) |
Minimum Distance (au) |
Maximum Distance (au) |
V-relative (km/s) |
V-infinity (km/s) |
JD (TDB) |
Time Uncertainty (minutes) |
Semi-major axis (km) |
Semi-minor axis (km) |
range-LOV angle (deg) |
N-sigma |
BP |
Orbit Ref. |
Reference |
Modified |
1922-May-15 11:29 |
00:02 |
Inter |
0.0311076181129401 |
0.0310777982268467 |
0.0311374399809017 |
5.83028601823641 |
5.83028593751995 |
2423189.978812331 |
2.1577190542948 |
1537.17768012074 |
64.0443701679428 |
-14.776162169963 |
18751.8288939298 |
T |
19 |
CATAB v2.0f-lin.ifort 2020-Nov-12 01:53:18 |
2020-Nov-12 01:53 |
|
|